カタログに戻る

SL-14 R/B

運用中PO
NORAD 18959·ROCKET BODY·🇷🇺 Russia

打ち上げ Mar 15, 1988 から Plesetsk Cosmodrome

Loading…

次のパス (今後24時間)

TLE

最新Source: Space-Track

元期: Sep 14, 2026, 06:23 UTC

1 18959U 88020B   26257.26601740  .00000312  00000-0  33000-4 0  9994
2 18959  82.5402 352.7428 0016864 146.9963 213.2310 14.85796664 60160

AllMySatでSL-14 R/Bをリアルタイム追跡

Download on the App Store